Home > Time Zones > World Clock > Weather > Norway > Odda > Past weeks

Flag for Norway Weather past 2 weeks in Odda, Norway

Now
35 °F

Chilly.


Feels Like: 35 °F
Forecast: 41 / 52 °F
Wind: 2 mph from Northwest

Location: Vaagsli

Current Time: May 25, 2015 at 6:37:11 AM

Latest Report: May 25, 2015 at 5:00 AM


Visibility: N/A

Pressure: 29.79 "Hg

Humidity: 83%

Dew point: 31 °F

Location of OddaLocation

Historic Weather in Odda — Graph

°F

Odda temperature yesterday

Maximum temperature yesterday: 40 °F (at 7:00 PM)
Minimum temperature yesterday: 29 °F (at 3:00 AM)
Average temperature yesterday: 35 °F

Past Weeks' High & Low Weather Summary

 TemperatureHumidityPressure
High46 °F (May 13, 2:00 PM)94% (May 16, 1:00 AM)30.15 "Hg (May 16, 1:00 AM)
Low22 °F (May 15, 5:00 AM)36% (May 18, 2:00 PM)29.35 "Hg (May 19, 7:00 AM)
Average37 °F72%29.83 "Hg
* Reported May 10 4:00 AM — May 25 4:00 AM, Odda, Weather by CustomWeather, © 2015

Note: Actual official high and low records may vary slightly from our data, if they occured in-between our weather recording intervals... More about our weather records

Advertising

Odda weather history for previous 24 hours

 ConditionsComfort  
Time TempWeatherWind HumidityBarometerVisibility
4:00 AM
Mon, May 25
35 °FChilly.1 mph83%29.79 "HgN/A
3:00 AM36 °FChilly.2 mph79%29.78 "HgN/A
2:00 AM36 °FChilly.2 mph80%29.80 "HgN/A
1:00 AM36 °FChilly.2 mph76%29.80 "HgN/A
12:00 AM36 °FChilly.1 mph78%29.82 "HgN/A
11:00 PM
Sun, May 24
37 °FChilly.2 mph75%29.81 "HgN/A
10:00 PM38 °FChilly.2 mph77%29.80 "HgN/A
9:00 PM38 °FChilly.2 mph82%29.80 "HgN/A
8:00 PM40 °FChilly.3 mph78%29.78 "HgN/A
7:00 PM40 °FQuite cool.1 mph82%29.78 "HgN/A
6:00 PM38 °FChilly.1 mph89%29.81 "HgN/A
5:00 PM39 °FChilly.2 mph87%29.83 "HgN/A
4:00 PM40 °FQuite cool.2 mph83%29.83 "HgN/A
3:00 PM38 °FChilly.1 mph89%29.85 "HgN/A
2:00 PM38 °FChilly.2 mph87%29.86 "HgN/A
1:00 PM37 °FChilly.2 mph84%29.88 "HgN/A
12:00 PM36 °FChilly.1 mph81%29.89 "HgN/A
11:00 AM36 °FChilly.1 mph79%29.91 "HgN/A
10:00 AM36 °FChilly.1 mph68%29.92 "HgN/A
9:00 AM37 °FChilly.1 mph59%29.93 "HgN/A
8:00 AM35 °FChilly.1 mph62%29.96 "HgN/A
7:00 AM34 °FChilly.1 mph70%29.98 "HgN/A
6:00 AM31 °FChilly.1 mph85%29.99 "HgN/A
Weather by CustomWeather, © 2015

See weather overviewHow to use our weather pages